| time (UTC) | temp C | wind direction | speed KPH | gust KPH | rain 1hr cm | rain 24hr cm | rain mn cm | humidity % | barometer mb |
| 20260505083043 | 6 | 246 | 1.6 | 6.4 | 0.00 | 0.48 | 0.03 | 87 | 1013.8 |
| 20260505081552 | 6 | 0 | 1.6 | 8.0 | 0.00 | 0.48 | 0.03 | 87 | 1014.0 |
| 20260505080042 | 6 | 0 | 0.0 | 8.0 | 0.00 | 0.48 | 0.03 | 86 | 1014.0 |
| 20260505074557 | 6 | 0 | 1.6 | 9.7 | 0.00 | 0.51 | 0.03 | 86 | 1013.9 |
| 20260505073038 | 6 | 246 | 0.0 | 4.8 | 0.00 | 0.51 | 0.03 | 84 | 1013.8 |
| 20260505071537 | 6 | 0 | 0.0 | 4.8 | 0.00 | 0.51 | 0.03 | 82 | 1013.6 |
| 20260505070037 | 7 | 0 | 0.0 | 8.0 | 0.00 | 0.51 | 0.03 | 80 | 1013.4 |
| 20260505064538 | 7 | 0 | 3.2 | 9.7 | 0.00 | 0.56 | 0.03 | 80 | 1013.3 |
| 20260505063040 | 7 | 0 | 1.6 | 12.9 | 0.00 | 0.56 | 0.03 | 79 | 1012.9 |
| 20260505061559 | 8 | 246 | 1.6 | 16.1 | 0.00 | 0.56 | 0.03 | 79 | 1012.9 |
| 20260505060044 | 8 | 246 | 3.2 | 19.3 | 0.00 | 0.56 | 0.03 | 78 | 1012.9 |
| 20260505054550 | 8 | 246 | 6.4 | 22.5 | 0.00 | 0.61 | 0.03 | 78 | 1012.8 |
| 20260505053037 | 8 | 246 | 1.6 | 14.5 | 0.00 | 0.61 | 0.03 | 78 | 1012.9 |
| 20260505051537 | 8 | 246 | 6.4 | 17.7 | 0.00 | 0.61 | 0.03 | 78 | 1013.0 |
| 20260505041537 | 8 | 246 | 6.4 | 17.7 | 0.03 | 0.66 | 0.03 | 75 | 1012.9 |
| 20260505040039 | 8 | 246 | 6.4 | 25.7 | 0.03 | 0.66 | 0.03 | 74 | 1012.9 |
| 20260505034544 | 9 | 246 | 8.0 | 20.9 | 0.00 | 0.69 | 0.00 | 74 | 1012.8 |
| 20260505033047 | 9 | 246 | 9.7 | 27.4 | 0.00 | 0.69 | 0.00 | 73 | 1012.4 |
| 20260505031537 | 9 | 246 | 11.3 | 25.7 | 0.00 | 0.69 | 0.00 | 72 | 1012.3 |
| 20260505030038 | 10 | 246 | 11.3 | 24.1 | 0.00 | 0.69 | 0.00 | 71 | 1012.0 |
| 20260505024601 | 10 | 246 | 11.3 | 37.0 | 0.00 | 0.74 | 0.69 | 70 | 1011.8 |
| 20260505023040 | 10 | 246 | 11.3 | 33.8 | 0.00 | 0.74 | 0.69 | 69 | 1011.8 |
| 20260505021556 | 10 | 246 | 12.9 | 27.4 | 0.00 | 0.74 | 0.69 | 69 | 1011.7 |
| 20260505020045 | 10 | 246 | 12.9 | 25.7 | 0.00 | 0.74 | 0.69 | 69 | 1011.3 |
| 20260505014539 | 10 | 246 | 9.7 | 24.1 | 0.00 | 0.79 | 0.69 | 69 | 1011.2 |
| 20260505013037 | 10 | 246 | 6.4 | 19.3 | 0.00 | 0.79 | 0.69 | 68 | 1011.2 |
| 20260505011548 | 10 | 246 | 4.8 | 33.8 | 0.00 | 0.79 | 0.69 | 67 | 1010.8 |
| 20260505010044 | 11 | 246 | 9.7 | 30.6 | 0.00 | 0.79 | 0.69 | 65 | 1010.7 |
| 20260505004543 | 11 | 246 | 8.0 | 24.1 | 0.03 | 0.84 | 0.69 | 64 | 1010.4 |
| 20260505003037 | 11 | 246 | 8.0 | 30.6 | 0.03 | 0.84 | 0.69 | 63 | 1010.3 |
| 20260505001537 | 11 | 246 | 11.3 | 25.7 | 0.03 | 0.84 | 0.69 | 63 | 1009.9 |
| 20260505000045 | 11 | 246 | 6.4 | 30.6 | 0.03 | 0.84 | 0.69 | 61 | 1009.5 |
| 20260504234540 | 12 | 246 | 12.9 | 29.0 | 0.00 | 0.89 | 0.66 | 60 | 1009.4 |
| 20260504233053 | 12 | 246 | 8.0 | 24.1 | 0.00 | 0.89 | 0.66 | 60 | 1009.3 |
| 20260504231537 | 12 | 246 | 9.7 | 24.1 | 0.00 | 0.89 | 0.66 | 60 | 1008.7 |
| 20260504230037 | 12 | 246 | 8.0 | 25.7 | 0.00 | 0.89 | 0.66 | 60 | 1008.6 |
| 20260504224543 | 12 | 246 | 8.0 | 25.7 | 0.00 | 0.97 | 0.66 | 60 | 1008.6 |
| 20260504223041 | 12 | 246 | 8.0 | 19.3 | 0.00 | 0.97 | 0.66 | 61 | 1008.7 |
| 20260504221545 | 13 | 246 | 6.4 | 24.1 | 0.03 | 0.97 | 0.66 | 60 | 1008.6 |
| 20260504220051 | 13 | 246 | 12.9 | 40.2 | 0.03 | 0.97 | 0.66 | 58 | 1008.7 |
| 20260504214537 | 13 | 246 | 3.2 | 27.4 | 0.03 | 1.04 | 0.66 | 57 | 1008.7 |
| 20260504213038 | 14 | 246 | 11.3 | 35.4 | 0.03 | 1.04 | 0.66 | 53 | 1008.9 |
| 20260504211538 | 15 | 246 | 16.1 | 29.0 | 0.00 | 1.02 | 0.64 | 49 | 1008.7 |
| 20260504210038 | 16 | 246 | 17.7 | 35.4 | 0.00 | 1.02 | 0.64 | 48 | 1008.4 |
| 20260504204553 | 16 | 246 | 8.0 | 24.1 | 0.00 | 1.09 | 0.64 | 53 | 1008.0 |
| 20260504203037 | 16 | 246 | 11.3 | 46.7 | 0.03 | 1.09 | 0.64 | 49 | 1007.8 |
| 20260504201537 | 16 | 246 | 14.5 | 35.4 | 0.03 | 1.09 | 0.64 | 46 | 1007.7 |
| 20260504200043 | 16 | 246 | 16.1 | 37.0 | 0.03 | 1.09 | 0.64 | 48 | 1007.7 |
| 20260504194542 | 16 | 246 | 16.1 | 41.8 | 0.03 | 1.17 | 0.64 | 48 | 1007.8 |
| 20260504193037 | 16 | 246 | 14.5 | 37.0 | 0.03 | 1.14 | 0.61 | 50 | 1007.6 |
| 20260504191540 | 16 | 246 | 17.7 | 43.5 | 0.03 | 1.14 | 0.61 | 49 | 1007.7 |
| 20260504190039 | 16 | 246 | 14.5 | 35.4 | 0.03 | 1.14 | 0.61 | 52 | 1007.5 |
| 20260504184538 | 16 | 246 | 12.9 | 35.4 | 0.03 | 1.22 | 0.61 | 50 | 1007.4 |
| 20260504183037 | 16 | 246 | 11.3 | 32.2 | 0.03 | 1.19 | 0.58 | 51 | 1007.3 |
| 20260504181542 | 16 | 246 | 11.3 | 33.8 | 0.03 | 1.19 | 0.58 | 48 | 1007.1 |
| 20260504180037 | 16 | 246 | 12.9 | 37.0 | 0.03 | 1.19 | 0.58 | 45 | 1007.4 |
| 20260504174538 | 16 | 246 | 16.1 | 33.8 | 0.05 | 1.27 | 0.58 | 45 | 1007.6 |
| 20260504173037 | 16 | 246 | 16.1 | 33.8 | 0.03 | 1.24 | 0.56 | 42 | 1007.5 |
| 20260504171538 | 16 | 246 | 19.3 | 33.8 | 0.03 | 1.24 | 0.56 | 38 | 1007.4 |